Terminal Aerodrome Forecast
Issued by NWS

Home | Current Version | Previous Version | Text Only | Print | Product List | Glossary On
Versions: 1 2 3 4 5 6 7 8 9 10 11 12 13 14 15 16
000
FTAK31 PANC 300924 AAA
TAFADQ
TAF AMD
PADQ 300924Z 3009/3106 06005KT P6SM SCT025 BKN035
      TEMPO 3009/3012 BKN025
     FM301500 03009KT P6SM OVC025=

USA.gov is the U.S. government's official web portal to all federal, state and local government web resources and services.